www.pogodaiklimat.ru

Погода и климат >> Архив погоды >> Бразилия >> Парана >> Фос-ду-Игуасу


ПОГОДА в Фос-ду-Игуасу

  • Прогноз погоды в Фос-ду-Игуасу
  • Монитор погоды в Фос-ду-Игуасу

АРХИВ ПОГОДЫ в Фос-ду-Игуасу

Время (UTC), дата Ветер
(напр.,м/с)
 
Видим.   Явления Облачность Т
(С)
Тd
(С)
f
(%)
Тe
(С)
Тes
(С)
Комфортность P
(гПа)
Po
(гПа)
Тmin
(С)
Tmax
(С)
R
(мм)
R24
(мм)
S
(см)
01 12.02 СЗ 3
{10}
н/о н/о +21.9 +18.8 83 +27 +27 душно 1012.6 985.4 19
02 12.02 СЗ 3
{8}
н/о н/о +21.4 +18.8 85 +26 +26 душно 1013.5 986.2 8
03 12.02 З 2
{5}
н/о н/о +21.4 +18.9 86 +26 +26 душно 1013.2 985.9 2
04 12.02 З 2
{4}
н/о н/о +21.3 +19.0 87 +26 +26 душно 1012.4 985.1 2
05 12.02 ЮЗ 5
{6}
н/о н/о +21.1 +19.0 88 +25 +25 комфорт 1009.1 981.9 3
06 12.02 ЮЗ 3
{6}
н/о н/о +21.2 +19.0 87 +26 +26 душно 1008.6 981.4
07 12.02 З 2
{4}
н/о н/о +21.0 +18.8 87 +26 +26 душно 1009.5 982.3
08 12.02 С 2
{3}
н/о н/о +21.0 +18.9 88 +26 +26 душно 1012.1 984.8
09 12.02 СЗ 1
{3}
н/о н/о +20.8 +18.8 88 +26 +26 душно 1013.4 986.1
10 12.02 С 1
{2}
н/о н/о +20.9 +19.0 89 +27 +27 душно 1014.8 987.4
11 12.02 С 1
{2}
н/о н/о +21.2 +19.3 89 +26 +26 душно 1015.5 988.2
12 12.02 С 1
{2}
н/о н/о +21.8 +19.8 88 +27 +27 душно 1016.3 989.0
13 12.02 С 2
{3}
н/о н/о +22.2 +20.1 88 +28 +28 душно 1016.6 989.3
14 12.02 С 2
{4}
н/о н/о +23.2 +20.7 86 +31 +31 очень
душно
1016.6 989.4
15 12.02 С 2
{4}
н/о н/о +23.5 +20.7 84 +29 +29 душно 1016.4 989.2
16 12.02
{3}
н/о н/о +23.9 +20.7 82 1016.3 989.2
17 12.02 СЗ 2
{3}
н/о н/о +24.6 +21.0 80 +31 +31 очень
душно
1015.8 988.8
18 12.02 С 2
{3}
н/о н/о +24.5 +21.0 81 +31 +31 очень
душно
1015.2 988.2
19 12.02 С 2
{4}
н/о н/о +24.0 +20.7 82 +30 +30 очень
душно
1015.2 988.1
20 12.02 СЗ 2
{3}
н/о н/о +23.8 +20.7 83 +30 +30 очень
душно
1014.4 987.3
21 12.02 СЗ 2
{3}
н/о н/о +24.1 +20.9 82 +30 +30 очень
душно
1013.8 986.8
22 12.02 С 2
{3}
н/о н/о +23.6 +20.6 83 +29 +29 душно 1013.9 986.8
23 12.02 СЗ 2
{4}
н/о н/о +22.8 +19.8 83 +29 +29 очень
душно
1014.4 987.2
00 13.02 С 1
{3}
н/о н/о +21.6 +18.8 84 +26 +26 душно 1015.1 987.8
01 13.02 С 2
{3}
н/о н/о +21.0 +18.7 87 +26 +26 душно 1015.8 988.4
02 13.02 С 2
{3}
н/о н/о +20.6 +18.4 87 +25 +25 комфорт 1016.5 989.1
03 13.02 С 1
{3}
н/о н/о +19.7 +17.6 88 +23 +23 комфорт 1016.4 988.9
04 13.02 С 1
{2}
н/о н/о +19.4 +17.5 89 +23 +23 комфорт 1016.3 988.8
05 13.02 С 1
{2}
н/о н/о +19.0 +17.2 89 +22 +22 комфорт 1015.6 988.0
06 13.02 С 1
{2}
н/о н/о +18.5 +16.7 89 +21 +21 комфорт 1015.1 987.5
07 13.02 СЗ 1
{2}
н/о н/о +18.2 +16.5 90 +20 +20 1014.8 987.2
08 13.02 С 1
{2}
н/о н/о +17.8 +16.2 90 +19 +19 1014.6 987.0
09 13.02 СЗ 1
{2}
н/о н/о +17.6 +16.1 91 +19 +19 1014.8 987.1
10 13.02 штиль 0
{2}
н/о н/о +18.6 +17.2 92 +19 +19 1014.9 987.3
11 13.02
{1}
н/о н/о +19.5 +17.9 90 1015.1 987.6
12 13.02 З 1
{2}
н/о н/о +22.2 +19.7 86 +28 +28 душно 1014.9 987.7
13 13.02 З 2
{3}
н/о н/о +24.4 +20.7 80 +30 +30 очень
душно
1014.8 987.8
14 13.02 ЮЗ 1
{3}
н/о н/о +26.7 +22.2 76 +35 +35 очень
душно
1014.5 987.7
15 13.02 С 1
{2}
н/о н/о +27.5 +22.6 75 +36 +36 очень
душно
1013.8 987.1
16 13.02 С 1
{2}
н/о н/о +27.9 +22.7 73 +37 +37 очень
душно
1013.1 986.4
17 13.02 С 1
{3}
н/о н/о +30.1 +24.1 70 +42 +42 опасность
перегрева
1012.2 985.7
18 13.02 В 2
{3}
н/о н/о +30.8 +24.2 68 +43 +43 опасность
перегрева
1011.2 984.8
19 13.02 ЮЗ 2
{4}
н/о н/о +29.1 +23.3 71 +39 +39 очень
душно
1010.7 984.2
20 13.02 Ю 2
{4}
н/о н/о +28.7 +23.8 75 +40 +40 очень
душно
1010.2 983.7 0.2
21 13.02 ЮЗ 2
{3}
н/о н/о +29.7 +24.0 72 +41 +41 опасность
перегрева
1009.8 983.4
22 13.02 ЮЗ 1
{2}
н/о н/о +27.3 +22.5 75 +36 +36 очень
душно
1010.4 983.7
23 13.02 З 1
{2}
н/о н/о +26.0 +22.0 79 +34 +34 очень
душно
1010.6 983.8
00 14.02 ЮЗ 1
{2}
н/о н/о +25.2 +22.1 83 +33 +33 очень
душно
1011.1 984.2
01 14.02 З 1
{2}
н/о н/о +24.6 +21.7 84 +31 +31 очень
душно
1011.5 984.6
02 14.02 З 1
{2}
н/о н/о +24.4 +21.7 85 +31 +31 очень
душно
1011.7 984.7
03 14.02 ЮЗ 1
{2}
н/о н/о +24.0 +21.6 86 +31 +31 очень
душно
1011.6 984.6
04 14.02 Ю 1
{1}
н/о н/о +24.4 +22.1 87 +32 +32 очень
душно
1011.3 984.4
05 14.02 Ю 2
{3}
н/о н/о +25.0 +21.9 83 +32 +32 очень
душно
1011.4 984.5
06 14.02 Ю 2
{3}
н/о н/о +23.9 +21.3 85 +30 +30 очень
душно
1011.5 984.5
07 14.02 ЮЗ 3
{3}
н/о н/о +23.3 +21.1 87 +31 +31 очень
душно
1011.7 984.6
08 14.02 ЮЗ 3
{5}
н/о н/о +22.4 +19.9 86 +29 +29 очень
душно
1012.0 984.9
09 14.02 ЮЗ 2
{4}
н/о н/о +21.8 +19.2 85 +27 +27 душно 1012.9 985.7
10 14.02 ЮЗ 2
{3}
н/о н/о +21.8 +19.3 86 +27 +27 душно 1013.4 986.2
11 14.02 ЮЗ 2
{3}
н/о н/о +22.7 +19.8 84 +29 +29 очень
душно
1013.8 986.6
12 14.02 ЮЗ 2
{4}
н/о н/о +23.7 +20.2 81 +29 +29 душно 1014.3 987.2
13 14.02 ЮЗ 2
{3}
н/о н/о +24.1 +20.2 79 +30 +30 очень
душно
1014.1 987.1
14 14.02 ЮВ 3
{5}
н/о н/о +27.1 +22.0 74 +35 +35 очень
душно
1013.4 986.6
15 14.02 Ю 2
{4}
н/о н/о +28.6 +22.1 68 +37 +37 очень
душно
1012.7 986.1
16 14.02 Ю 2
{4}
н/о н/о +29.2 +22.1 66 +38 +38 очень
душно
1011.9 985.4
17 14.02 ЮВ 2
{5}
н/о н/о +30.0 +22.6 65 +40 +40 очень
душно
1010.7 984.3
18 14.02 ЮВ 2
{4}
н/о н/о +30.4 +22.8 64 +40 +40 очень
душно
1009.7 983.3
19 14.02 ЮВ 2
{4}
н/о н/о +29.4 +22.1 65 +38 +38 очень
душно
1008.9 982.5
20 14.02 ЮВ 2
{3}
н/о н/о +28.2 +21.6 67 +36 +36 очень
душно
1008.7 982.2
21 14.02 С 1
{3}
н/о н/о +25.5 +21.1 77 +32 +32 очень
душно
1009.4 982.6 1
22 14.02 С 1
{2}
н/о н/о +24.6 +21.3 82 +31 +31 очень
душно
1009.9 983.0 0.6
23 14.02 С 1
{2}
н/о н/о +23.9 +21.1 84 +30 +30 очень
душно
1010.2 983.2
00 15.02 З 1
{2}
н/о н/о +23.7 +21.1 85 +30 +30 очень
душно
1010.6 983.6 0.2
01 15.02 З 1
{1}
н/о н/о +23.8 +21.5 87 +30 +30 очень
душно
1010.7 983.7
02 15.02 СЗ 1
{1}
н/о н/о +23.6 +21.4 87 +30 +30 очень
душно
1010.9 983.9
03 15.02 штиль 0
{1}
н/о н/о +23.7 +21.5 87 +30 +30 очень
душно
1010.8 983.8
04 15.02 СВ 1
{2}
н/о н/о +23.7 +21.7 89 +30 +30 очень
душно
1010.6 983.6
05 15.02 Ю 1
{1}
н/о н/о +23.8 +21.9 89 +31 +31 очень
душно
1009.6 982.6
06 15.02 ЮВ 1
{2}
н/о н/о +23.8 +21.9 89 +31 +31 очень
душно
1008.5 981.6 0.2
07 15.02 ЮВ 1
{2}
н/о н/о +23.8 +22.0 90 +31 +31 очень
душно
1008.1 981.2 0.4
08 15.02 СВ 1
{2}
н/о н/о +23.6 +21.8 90 +30 +30 очень
душно
1007.8 980.9 0.2
09 15.02 В 1
{2}
н/о н/о +23.5 +21.8 90 +30 +30 очень
душно
1007.6 980.7
10 15.02 СВ 1
{2}
н/о н/о +23.5 +21.7 90 +30 +30 очень
душно
1007.7 980.8
11 15.02 СВ 2
{3}
н/о н/о +23.7 +22.0 90 +31 +31 очень
душно
1008.1 981.2
12 15.02 С 2
{4}
н/о н/о +22.8 +21.1 90 +30 +30 очень
душно
1008.6 981.6 1
13 15.02 С 2
{4}
н/о н/о +23.4 +21.6 90 +32 +32 очень
душно
1009.1 982.1 0.2
14 15.02 С 2
{5}
н/о н/о +23.7 +21.4 87 +30 +30 очень
душно
1008.7 981.8 0.4
15 15.02 С 2
{5}
н/о н/о +25.4 +22.8 86 +34 +34 очень
душно
1008.5 981.7
16 15.02 С 2
{4}
н/о н/о +27.4 +23.4 79 +37 +37 очень
душно
1007.9 981.3
17 15.02
{4}
н/о н/о +25.9 +22.0 79 1007.9 981.2
18 15.02 СВ 1
{2}
н/о н/о +26.3 +21.9 77 +34 +34 очень
душно
1007.4 980.7
19 15.02
{4}
н/о н/о +27.5 +21.9 72 1006.6 980.1
20 15.02
{4}
н/о н/о +27.7 +21.3 68 1006.1 979.6
21 15.02 С 2
{4}
н/о н/о +27.2 +20.8 68 +34 +34 очень
душно
1006.2 979.6
22 15.02 С 1
{3}
н/о н/о +25.1 +19.8 72 +31 +31 очень
душно
1006.6 979.8
23 15.02
{3}
н/о н/о +23.7 +19.1 75 1007.1 980.2
00 16.02 С 1
{2}
н/о н/о +22.6 +18.5 78 +28 +28 душно 1007.7 980.7
02 16.02 СВ 1
{2}
н/о н/о +21.8 +18.2 80 +27 +27 душно 1008.8 981.7
03 16.02 С 1
{1}
н/о н/о +21.1 +17.7 81 +25 +25 комфорт 1008.8 981.6
04 16.02
{1}
н/о н/о +21.1 +17.9 82 1008.6 981.4
05 16.02 С 1
{2}
н/о н/о +20.3 +17.6 84 +25 +25 комфорт 1008.2 981.0
06 16.02 СВ 1
{2}
н/о н/о +20.0 +17.6 86 +24 +24 комфорт 1008.1 980.8
07 16.02
{2}
н/о н/о +19.7 +17.5 87 1008.0 980.7
08 16.02 С 1
{2}
н/о н/о +19.0 +17.0 88 +22 +22 комфорт 1008.2 980.8
09 16.02 штиль 0
{2}
н/о н/о +19.4 +17.5 89 +21 +21 комфорт 1008.5 981.2
10 16.02 С 1
{2}
н/о н/о +19.5 +17.7 89 +23 +23 комфорт 1009.0 981.7
11 16.02
{2}
н/о н/о +20.1 +18.3 89 1009.5 982.2
12 16.02 С 1
{2}
н/о н/о +21.6 +19.3 87 +27 +27 душно 1009.4 982.3
13 16.02 С 1
{2}
н/о н/о +23.8 +20.8 83 +30 +30 очень
душно
1009.6 982.6
14 16.02 З 1
{2}
н/о н/о +25.6 +21.3 77 +32 +32 очень
душно
1009.2 982.4
15 16.02 З 1
{2}
н/о н/о +27.5 +22.4 74 +36 +36 очень
душно
1008.4 981.8
16 16.02 З 1
{3}
н/о н/о +28.1 +22.0 70 +37 +37 очень
душно
1007.8 981.3
17 16.02 СЗ 1
{3}
н/о н/о +28.2 +21.3 66 +36 +36 очень
душно
1007.1 980.6
18 16.02 СЗ 1
{3}
н/о н/о +29.0 +22.1 66 +37 +37 очень
душно
1006.3 979.9
19 16.02 В 4
{6}
н/о н/о +23.9 +19.7 77 +29 +29 душно 1007.1 980.2 5
20 16.02 В 1
{6}
н/о н/о +22.2 +18.3 79 +27 +27 душно 1007.6 980.6
21 16.02 З 1
{6}
н/о н/о +20.2 +17.8 86 +25 +25 комфорт 1007.5 980.3 26
22 16.02 З 1
{1}
н/о н/о +20.1 +17.9 87 +24 +24 комфорт 1008.0 980.8
23 16.02 СВ 1
{1}
н/о н/о +19.8 +17.6 87 +24 +24 комфорт 1008.6 981.3
00 17.02 СЗ 1
{2}
н/о н/о +20.6 +18.6 88 +26 +26 душно 1009.1 981.9
01 17.02 З 1
{1}
н/о н/о +20.5 +18.4 88 +26 +26 душно 1010.1 982.8
02 17.02 З 1
{2}
н/о н/о +20.1 +18.0 88 +25 +25 комфорт 1009.9 982.6
03 17.02 З 1
{2}
н/о н/о +20.3 +18.3 88 +25 +25 комфорт 1009.4 982.1
04 17.02 ЮЗ 1
{2}
н/о н/о +19.8 +17.8 88 +24 +24 комфорт 1008.8 981.5
05 17.02 СЗ 1
{2}
н/о н/о +19.8 +17.9 89 +24 +24 комфорт 1009.0 981.7
06 17.02 СЗ 1
{2}
н/о н/о +19.5 +17.7 89 +23 +23 комфорт 1008.8 981.5
07 17.02 СЗ 1
{1}
н/о н/о +19.0 +17.2 89 +22 +22 комфорт 1008.9 981.5 0.2
08 17.02 СЗ 1
{1}
н/о н/о +18.9 +17.2 90 +21 +21 комфорт 1009.0 981.6
09 17.02 З 1
{1}
н/о н/о +18.6 +16.9 90 +21 +21 комфорт 1009.1 981.7
10 17.02 З 1
{1}
н/о н/о +19.5 +17.9 90 +23 +23 комфорт 1009.9 982.5
11 17.02 ЮЗ 2
{3}
н/о н/о +21.6 +19.6 88 +27 +27 душно 1010.3 983.1
12 17.02 ЮЗ 3
{4}
н/о н/о +21.5 +19.1 86 +26 +26 душно 1011.0 983.8
13 17.02 ЮЗ 2
{4}
н/о н/о +23.2 +20.4 84 +30 +30 очень
душно
1011.3 984.2
14 17.02 ЮЗ 3
{4}
н/о н/о +24.1 +20.4 80 +30 +30 очень
душно
1011.1 984.1
15 17.02 ЮЗ 3
{4}
н/о н/о +27.1 +22.4 76 +36 +36 очень
душно
1010.3 983.6
16 17.02 ЮЗ 2
{4}
н/о н/о +27.6 +21.8 71 +36 +36 очень
душно
1009.5 982.9
17 17.02 З 1
{3}
н/о н/о +27.9 +21.3 67 +35 +35 очень
душно
1008.7 982.1
18 17.02 З 2
{3}
н/о н/о +27.8 +21.6 69 +36 +36 очень
душно
1007.6 981.1
19 17.02 З 1
{3}
н/о н/о +29.4 +22.4 66 +38 +38 очень
душно
1007.1 980.7
20 17.02
{3}
н/о н/о +24.4 +19.2 73 1008.0 981.1
21 17.02 СВ 1
{3}
н/о н/о +23.4 +19.2 77 +30 +30 очень
душно
1008.3 981.3
22 17.02 С 1
{2}
н/о н/о +22.7 +19.1 80 +29 +29 очень
душно
1009.3 982.3
23 17.02 З 1
{6}
н/о н/о +20.1 +17.6 86 +24 +24 комфорт 1009.1 981.8 8
00 18.02 СЗ 1
{2}
н/о н/о +20.2 +18.0 87 +25 +25 комфорт 1010.0 982.7
01 18.02 З 1
{1}
н/о н/о +19.8 +17.7 88 +24 +24 комфорт 1010.2 982.9
02 18.02 Ю 1
{2}
н/о н/о +19.9 +18.0 89 +24 +24 комфорт 1010.4 983.1
03 18.02 ЮВ 1
{2}
н/о н/о +20.2 +18.3 89 +25 +25 комфорт 1010.3 983.0
04 18.02 ЮЗ 1
{2}
н/о н/о +20.4 +18.5 89 +25 +25 комфорт 1009.4 982.1
05 18.02 З 1
{2}
н/о н/о +19.5 +17.6 89 +23 +23 комфорт 1009.2 981.9
06 18.02 З 1
{2}
н/о н/о +19.3 +17.5 89 +23 +23 комфорт 1008.6 981.3
07 18.02 штиль 0
{2}
н/о н/о +19.0 +17.3 90 +20 +20 1008.6 981.2
08 18.02 ЮЗ 2
{3}
н/о н/о +19.4 +17.8 90 +22 +22 комфорт 1008.3 981.0
09 18.02 ЮЗ 2
{3}
н/о н/о +19.7 +18.0 90 +23 +23 комфорт 1008.8 981.5
10 18.02 З 1
{4}
н/о н/о +20.0 +18.3 90 +24 +24 комфорт 1009.6 982.3
11 18.02 ЮЗ 2
{3}
н/о н/о +21.9 +19.9 88 +28 +28 душно 1010.2 983.1
12 18.02 ЮЗ 1
{3}
н/о н/о +23.8 +21.3 86 +30 +30 очень
душно
1010.5 983.5
13 18.02 ЮВ 2
{3}
н/о н/о +25.9 +22.2 80 +34 +34 очень
душно
1010.5 983.7
14 18.02 ЮВ 2
{4}
н/о н/о +28.5 +23.0 72 +38 +38 очень
душно
1010.1 983.5
15 18.02 Ю 3
{5}
н/о н/о +28.5 +22.3 69 +37 +37 очень
душно
1009.4 982.9
16 18.02 ЮВ 2
{4}
н/о н/о +30.2 +23.2 66 +40 +40 очень
душно
1008.3 981.9
17 18.02 ЮВ 2
{4}
н/о н/о +30.4 +22.4 62 +39 +39 очень
душно
1007.3 981.0
18 18.02 З 2
{5}
н/о н/о +26.5 +20.1 68 +33 +33 очень
душно
1006.7 980.1
19 18.02 З 3
{4}
н/о н/о +27.2 +21.2 70 +34 +34 очень
душно
1006.2 979.6
20 18.02 ЮВ 3
{10}
н/о н/о +20.0 +16.9 82 +23 +23 комфорт 1008.7 981.4 11
21 18.02 ЮЗ 1
{5}
н/о н/о +20.4 +17.8 85 +25 +25 комфорт 1007.9 980.7 3
22 18.02 З 1
{2}
н/о н/о +20.4 +17.9 86 +25 +25 комфорт 1008.2 981.0
23 18.02 Ю 1
{2}
н/о н/о +20.4 +18.3 88 +25 +25 комфорт 1009.0 981.8
00 19.02 Ю 1
{2}
н/о н/о +20.3 +18.3 88 +25 +25 комфорт 1010.0 982.7
01 19.02 Ю 1
{2}
н/о н/о +19.8 +17.8 88 +24 +24 комфорт 1010.1 982.8

 

Местоположение метеостанции Фос-ду-Игуасу (Парана, Бразилия): широта -25.60 долгота -54.48 высота над уровнем моря 233 м.

В архиве по умолчанию представлена погода в Фос-ду-Игуасу за последнюю неделю. Архивные данные за месяц целиком и за предыдущие месяцы, начиная с января 2011 года, Вы можете получить, выбрав интересующий диапазон дат из раскрывающегося списка и нажав кнопку "Ввод!".


*Определитесь, кто Вы:
робот инопланетянин человек

Внимание! Время в таблицах - всемирное. Для получения местного времени необходимо прибавить поправку, которая равна -3 ч.

Смотрите также архив погоды в соседних городах и на ближайших метеорологических станциях:

Погода в Фос-ду-Игуасу (Парана, Бразилия) (14 км)
Погода в Игуасу (Аргентина) (15 км)
Погода в Аэропорту Гуарани (Парагвай) (41 км)
Погода в Планарту (Парана, Бразилия) (74 км)
Погода в Дионисио Серкейра (Парана, Бразилия) (114 км)
Погода в Марешал-Кандиду-Рондоне (Парана, Бразилия) (128 км)
Погода в Дойс-Визиньюсе (Парана, Бразилия) (139 км)
Погода в Сан-Мигель-ду-Осте (Санта-Катарина, Бразилия) (164 км)
Погода в Капитан Меса (Парагвай) (164 км)
Погода в Сальто-дель-Гуайре (Парагвай) (173 км)

Пояснения к столбцам:

Ветер - указаны скорость ветра в м/с - средняя за 10 мин, порывы в срок и между сроками (в фигурных скобках) и направление, откуда дует ветер: С - северный, СВ - северо-восточный, В - восточный, ЮВ - юго-восточный, Ю - южный, ЮЗ - юго-западный, З - западный, СЗ - северо-западный.
Видимость - горизонтальная дальность видимости в метрах или километрах. При видимости от 1 до 10 км при отсутствии осадков обычно наблюдается дымка, при ухудшении видимости до 1 км и менее - туман. В сухую погоду видимость может ухудшаться дымом, пылью или мглою.
Явления - указаны атмосферные явления, наблюдавшиеся в срок или в последний час перед сроком; фигурными скобками обозначены явления, наблюдавшиеся между сроками (за 1-3 часа до срока); квадратными скобками обозначены град или гололедные отложения с указанием их диаметра в мм.
Облачность - указаны через наклонную черту общая и нижняя облачность в баллах и высота нижней границы облаков в метрах; квадратными скобками обозначены формы облаков: Ci - перистые, Cs - перисто-слоистые, Cc - перисто-кучевые, Ac - высококучевые, As - высокослоистые, Sc - слоисто-кучевые, Ns - слоисто-дождевые, Cu - кучевые, Cb - кучево-дождевые. Подробнее классификацию облаков см. в Атласе облаков (PDF).
T - Температура воздуха - температура, измеренная на высоте 2 м над землей.
Td - Температура точки росы - температура, при понижении до которой содержащийся в воздухе водяной пар достигнет насыщения.
f - Относительная влажность воздуха - влажноcть воздуха, измеренная на высоте 2 м над землей.
Te - Эффективная температура - температура, которую ощущает одетый по сезону человек в тени. Характеристика душности погоды. При расчете учитывается влияние влажности воздуха и скорости ветра на теплоощущения человека.
Tes - Эффективная температура на солнце - температура, которую ощущает человек, с поправкой на солнечный нагрев. Характеристика знойности погоды. Зависит от высоты солнца над горизонтом, облачности и скорости ветра. Ночью, в пасмурную погоду, а также при ветре 12 м/с и более поправка равна нулю.
P - Атмосферное давление - приведенное к уровню моря атмосферное давление.
Po - Атмосферное давление - измеренное на уровне метеостанции атмосферное давление.
Tmin - Минимальная температура - минимум температуры воздуха на высоте 2 м над землей.
Tmax - Максимальная температура - максимум температуры воздуха на высоте 2 м над землей.
R - Количество осадков - Количество выпавших осадков за период времени, мм. При наведении курсора мыши на число - период времени, за который выпало указанное количество осадков.
R24 - Количество осадков - Количество выпавших осадков за 24 часа, мм.
S - Снежный покров - Высота снежного покрова, см. При наведении курсора мыши на число - состояние снежного покрова и степень покрытия местности в баллах.